| time (UTC) | temp F | wind direction | speed MPH | gust MPH | rain 1hr in | rain 24hr in | rain mn in | humidity % | barometer mb |
| 20260905054551 | 55 | 0 | 0.0 | 2.0 | 0.00 | 0.00 | 0.00 | 60 | 1016.3 |
| 20260905053058 | 55 | 0 | 0.0 | 3.0 | 0.00 | 0.00 | 0.00 | 60 | 1016.1 |
| 20260905051554 | 55 | 0 | 0.0 | 6.0 | 0.00 | 0.00 | 0.00 | 58 | 1015.8 |
| 20260905044600 | 57 | 0 | 0.0 | 3.0 | 0.00 | 0.00 | 0.00 | 55 | 1015.7 |
| 20260905043048 | 57 | 294 | 4.0 | 9.0 | 0.00 | 0.00 | 0.00 | 55 | 1015.6 |
| 20260905041551 | 58 | 271 | 1.0 | 6.0 | 0.00 | 0.00 | 0.00 | 53 | 1015.7 |
| 20260905040052 | 57 | 0 | 0.0 | 10.0 | 0.00 | 0.00 | 0.00 | 54 | 1015.6 |
| 20260905034548 | 57 | 0 | 0.0 | 4.0 | 0.00 | 0.00 | 0.00 | 55 | 1015.5 |
| 20260905033048 | 58 | 223 | 1.0 | 4.0 | 0.00 | 0.00 | 0.00 | 55 | 1015.5 |
| 20260905031556 | 58 | 0 | 0.0 | 3.0 | 0.00 | 0.00 | 0.00 | 54 | 1015.2 |
| 20260905024558 | 60 | 0 | 1.0 | 7.0 | 0.00 | 0.00 | 0.00 | 50 | 1015.1 |
| 20260905023058 | 60 | 163 | 2.0 | 9.0 | 0.00 | 0.00 | 0.00 | 50 | 1015.1 |
| 20260905021555 | 61 | 169 | 2.0 | 13.0 | 0.00 | 0.00 | 0.00 | 48 | 1015.0 |
| 20260905020100 | 62 | 157 | 4.0 | 9.0 | 0.00 | 0.00 | 0.00 | 47 | 1015.0 |
| 20260905014556 | 63 | 153 | 1.0 | 11.0 | 0.00 | 0.00 | 0.00 | 46 | 1015.0 |
| 20260905013050 | 64 | 180 | 6.0 | 17.0 | 0.00 | 0.00 | 0.00 | 45 | 1015.1 |
| 20260905011549 | 63 | 166 | 5.0 | 12.0 | 0.00 | 0.00 | 0.00 | 46 | 1015.0 |
| 20260905010113 | 63 | 196 | 4.0 | 15.0 | 0.00 | 0.00 | 0.00 | 46 | 1015.1 |
| 20260905004613 | 64 | 174 | 4.0 | 21.0 | 0.00 | 0.00 | 0.00 | 46 | 1014.8 |
| 20260905003056 | 64 | 169 | 7.0 | 17.0 | 0.00 | 0.00 | 0.00 | 45 | 1014.6 |
| 20260905001558 | 64 | 172 | 6.0 | 16.0 | 0.00 | 0.00 | 0.00 | 45 | 1014.6 |
| 20260905000051 | 65 | 154 | 8.0 | 20.0 | 0.00 | 0.00 | 0.00 | 43 | 1014.5 |
| 20260904234548 | 65 | 200 | 10.0 | 20.0 | 0.00 | 0.00 | 0.00 | 42 | 1014.4 |
| 20260904233052 | 66 | 161 | 9.0 | 20.0 | 0.00 | 0.00 | 0.00 | 42 | 1014.5 |
| 20260904231551 | 65 | 173 | 5.0 | 17.0 | 0.00 | 0.00 | 0.00 | 43 | 1014.3 |
| 20260904230052 | 65 | 180 | 6.0 | 16.0 | 0.00 | 0.00 | 0.00 | 43 | 1014.5 |
| 20260904224552 | 65 | 203 | 9.0 | 22.0 | 0.00 | 0.00 | 0.00 | 43 | 1014.5 |
| 20260904223046 | 66 | 178 | 9.0 | 21.0 | 0.00 | 0.00 | 0.00 | 43 | 1014.5 |
| 20260904221601 | 66 | 171 | 7.0 | 20.0 | 0.00 | 0.00 | 0.00 | 41 | 1014.2 |
| 20260904220056 | 66 | 198 | 7.0 | 19.0 | 0.00 | 0.00 | 0.00 | 42 | 1014.3 |
| 20260904214554 | 67 | 167 | 11.0 | 27.0 | 0.00 | 0.00 | 0.00 | 40 | 1014.3 |
| 20260904213053 | 67 | 238 | 9.0 | 20.0 | 0.00 | 0.00 | 0.00 | 41 | 1014.3 |
| 20260904211550 | 67 | 165 | 12.0 | 23.0 | 0.00 | 0.00 | 0.00 | 41 | 1014.3 |
| 20260904210052 | 67 | 226 | 6.0 | 17.0 | 0.00 | 0.00 | 0.00 | 42 | 1014.3 |
| 20260904204556 | 67 | 185 | 5.0 | 17.0 | 0.00 | 0.00 | 0.00 | 43 | 1014.3 |
| 20260904203050 | 66 | 191 | 8.0 | 21.0 | 0.00 | 0.00 | 0.00 | 43 | 1014.4 |
| 20260904201552 | 65 | 200 | 13.0 | 22.0 | 0.00 | 0.00 | 0.00 | 44 | 1014.3 |
| 20260904200047 | 65 | 156 | 10.0 | 22.0 | 0.00 | 0.00 | 0.00 | 44 | 1014.3 |
| 20260904194559 | 65 | 196 | 14.0 | 27.0 | 0.00 | 0.00 | 0.00 | 44 | 1014.4 |
| 20260904193054 | 65 | 191 | 10.0 | 28.0 | 0.00 | 0.00 | 0.00 | 45 | 1014.3 |
| 20260904191546 | 65 | 181 | 11.0 | 22.0 | 0.00 | 0.00 | 0.00 | 44 | 1014.4 |
| 20260904190056 | 65 | 195 | 10.0 | 20.0 | 0.00 | 0.00 | 0.00 | 44 | 1014.4 |
| 20260904184555 | 65 | 166 | 13.0 | 28.0 | 0.00 | 0.00 | 0.00 | 44 | 1014.5 |
| 20260904183051 | 64 | 190 | 12.0 | 24.0 | 0.00 | 0.00 | 0.00 | 46 | 1014.4 |
| 20260904181553 | 63 | 169 | 12.0 | 22.0 | 0.00 | 0.00 | 0.00 | 46 | 1014.4 |
| 20260904180055 | 63 | 161 | 10.0 | 27.0 | 0.00 | 0.00 | 0.00 | 47 | 1014.4 |
| 20260904174606 | 63 | 158 | 9.0 | 25.0 | 0.00 | 0.00 | 0.00 | 48 | 1014.2 |
| 20260904173103 | 62 | 155 | 10.0 | 25.0 | 0.00 | 0.00 | 0.00 | 48 | 1014.1 |
| 20260904171557 | 62 | 183 | 12.0 | 24.0 | 0.00 | 0.00 | 0.00 | 48 | 1014.0 |
| 20260904170057 | 62 | 140 | 8.0 | 22.0 | 0.00 | 0.00 | 0.00 | 50 | 1013.8 |
| 20260904164556 | 62 | 182 | 8.0 | 18.0 | 0.00 | 0.00 | 0.00 | 51 | 1013.7 |
| 20260904163051 | 62 | 168 | 6.0 | 15.0 | 0.00 | 0.00 | 0.00 | 51 | 1013.5 |
| 20260904161550 | 61 | 162 | 7.0 | 20.0 | 0.00 | 0.00 | 0.00 | 52 | 1013.3 |
| 20260904160100 | 61 | 149 | 5.0 | 20.0 | 0.00 | 0.00 | 0.00 | 52 | 1013.2 |
| 20260904154557 | 61 | 157 | 8.0 | 18.0 | 0.00 | 0.00 | 0.00 | 52 | 1013.2 |
| 20260904153122 | 60 | 162 | 7.0 | 17.0 | 0.00 | 0.00 | 0.00 | 53 | 1013.2 |
| 20260904151545 | 60 | 153 | 5.0 | 18.0 | 0.00 | 0.00 | 0.00 | 52 | 1013.1 |
| 20260904150057 | 60 | 140 | 5.0 | 13.0 | 0.00 | 0.00 | 0.00 | 53 | 1013.1 |
| 20260904144549 | 60 | 155 | 6.0 | 13.0 | 0.00 | 0.00 | 0.00 | 53 | 1013.1 |
| 20260904143055 | 60 | 134 | 6.0 | 17.0 | 0.00 | 0.00 | 0.00 | 52 | 1012.9 |
| 20260904141557 | 60 | 159 | 6.0 | 12.0 | 0.00 | 0.00 | 0.00 | 53 | 1012.8 |
| 20260904140050 | 59 | 161 | 6.0 | 17.0 | 0.00 | 0.00 | 0.00 | 54 | 1012.6 |
| 20260904134553 | 60 | 196 | 4.0 | 17.0 | 0.00 | 0.00 | 0.00 | 53 | 1012.6 |
| 20260904133101 | 59 | 165 | 6.0 | 23.0 | 0.00 | 0.00 | 0.00 | 54 | 1012.4 |
| 20260904131626 | 60 | 206 | 5.0 | 15.0 | 0.00 | 0.00 | 0.00 | 53 | 1012.4 |
| 20260904130056 | 60 | 178 | 5.0 | 16.0 | 0.00 | 0.00 | 0.00 | 53 | 1012.2 |
| 20260904124547 | 60 | 164 | 4.0 | 17.0 | 0.00 | 0.00 | 0.00 | 53 | 1012.1 |
| 20260904123101 | 60 | 86 | 5.0 | 17.0 | 0.00 | 0.00 | 0.00 | 53 | 1012.2 |
| 20260904121554 | 60 | 159 | 3.0 | 20.0 | 0.00 | 0.00 | 0.00 | 53 | 1012.0 |
| 20260904120054 | 60 | 152 | 4.0 | 17.0 | 0.00 | 0.00 | 0.00 | 52 | 1012.0 |
| 20260904114553 | 60 | 154 | 4.0 | 11.0 | 0.00 | 0.00 | 0.00 | 52 | 1011.8 |
| 20260904113052 | 60 | 147 | 3.0 | 14.0 | 0.00 | 0.00 | 0.00 | 52 | 1011.8 |
| 20260904111553 | 60 | 156 | 3.0 | 11.0 | 0.00 | 0.00 | 0.00 | 52 | 1011.8 |
| 20260904110054 | 60 | 128 | 4.0 | 13.0 | 0.00 | 0.00 | 0.00 | 51 | 1011.9 |
| 20260904104604 | 60 | 63 | 3.0 | 11.0 | 0.00 | 0.00 | 0.00 | 51 | 1011.9 |
| 20260904103056 | 60 | 155 | 4.0 | 12.0 | 0.00 | 0.00 | 0.00 | 51 | 1011.8 |
| 20260904101551 | 60 | 167 | 3.0 | 16.0 | 0.00 | 0.00 | 0.00 | 52 | 1011.8 |
| 20260904100045 | 60 | 162 | 4.0 | 14.0 | 0.00 | 0.00 | 0.00 | 52 | 1012.0 |
| 20260904094558 | 60 | 159 | 4.0 | 10.0 | 0.00 | 0.00 | 0.00 | 52 | 1011.8 |
| 20260904093056 | 61 | 96 | 4.0 | 12.0 | 0.00 | 0.00 | 0.00 | 51 | 1011.9 |
| 20260904091606 | 61 | 171 | 4.0 | 13.0 | 0.00 | 0.00 | 0.00 | 51 | 1012.0 |
| 20260904090051 | 61 | 125 | 4.0 | 11.0 | 0.00 | 0.00 | 0.00 | 51 | 1012.1 |
| 20260904084546 | 60 | 153 | 4.0 | 13.0 | 0.00 | 0.00 | 0.00 | 51 | 1012.2 |
| 20260904083107 | 60 | 146 | 4.0 | 14.0 | 0.00 | 0.00 | 0.00 | 51 | 1012.3 |
| 20260904081550 | 60 | 167 | 5.0 | 12.0 | 0.00 | 0.00 | 0.00 | 52 | 1012.3 |
| 20260904080045 | 60 | 130 | 1.0 | 9.0 | 0.00 | 0.00 | 0.00 | 51 | 1012.4 |
| 20260904074606 | 60 | 180 | 3.0 | 9.0 | 0.00 | 0.00 | 0.00 | 51 | 1012.5 |
| 20260904073053 | 60 | 101 | 3.0 | 10.0 | 0.00 | 0.00 | 0.00 | 51 | 1012.5 |
| 20260904071547 | 60 | 177 | 4.0 | 11.0 | 0.00 | 0.00 | 0.00 | 50 | 1012.4 |
| 20260904070056 | 60 | 109 | 4.0 | 17.0 | 0.00 | 0.00 | 0.00 | 49 | 1012.3 |
| 20260904064553 | 60 | 134 | 3.0 | 12.0 | 0.00 | 0.00 | 0.00 | 49 | 1012.4 |
| 20260904063053 | 60 | 156 | 4.0 | 14.0 | 0.00 | 0.00 | 0.00 | 49 | 1012.2 |
| 20260904061546 | 60 | 178 | 6.0 | 16.0 | 0.00 | 0.00 | 0.00 | 48 | 1012.2 |
| 20260904060045 | 60 | 158 | 5.0 | 14.0 | 0.00 | 0.00 | 0.00 | 48 | 1012.3 |